Stations météo

Publicité
Perrigny, France (7266): Température de l'air & dewpoint: 17.02.2019 23:00:00 - 23.02.2019 23:00:00 (CET)Perrigny, France (7266): Température de l'air 5cm: 17.02.2019 23:00:00 - 23.02.2019 23:00:00 (CET)Perrigny, France (7266): Température de l'air -20cm & Température de l'air -100cm: 17.02.2019 23:00:00 - 23.02.2019 23:00:00 (CET)Perrigny, France (7266): Vitesse du vent & gusts: 17.02.2019 23:00:00 - 23.02.2019 23:00:00 (CET)Perrigny, France (7266): Direction du vent: 17.02.2019 23:00:00 - 23.02.2019 23:00:00 (CET)Perrigny, France (7266): reduced air pressure: 17.02.2019 23:00:00 - 23.02.2019 23:00:00 (CET)Perrigny, France (7266): visibility: 17.02.2019 23:00:00 - 23.02.2019 23:00:00 (CET)Perrigny, France (7266): Ensoleillement: 17.02.2019 23:00:00 - 23.02.2019 23:00:00 (CET)Perrigny, France (7266): Quantités de précipitations: 17.02.2019 23:00:00 - 23.02.2019 23:00:00 (CET)
Date & Time tt [°C] td [°C] tt 5cm [°C] tt -20cm [°C] tt -100cm [°C] ff [km/h] ff [knt] fx [km/h] fx [knt] dd ppp [hPa] vv [km] sd [min] rr [mm]
23.02.2019 23:00:00 8,1 -1,2 5,7 8,2 7,9 8 4 15 8 NNE 1032,3 20 0 0,0
23.02.2019 22:00:00 9,2 -0,7 6,8 8,5 7,9 8 4 18 10 NNE 1032,2 20 0 0,0
23.02.2019 21:00:00 10,3 0,0 8,0 8,6 7,9 10 5 23 13 NNE 1031,9 20 0 0,0
23.02.2019 20:00:00 11,8 0,5 9,5 8,7 7,9 11 6 19 10 NE 1031,3 20 0 0,0
23.02.2019 19:00:00 13,0 1,0 11,0 8,8 7,9 8 4 19 11 N 1031,0 20 0 0,0
23.02.2019 18:00:00 14,4 2,3 13,4 8,8 7,9 9 5 20 11 NNE 1030,4 20 56 0,0
23.02.2019 17:00:00 15,7 3,1 17,9 8,6 7,9 10 5 23 12 NNE 1030,7 20 60 0,0
23.02.2019 16:00:00 15,9 3,3 18,2 8,3 7,9 10 5 25 13 NNE 1031,0 20 60 0,0
23.02.2019 15:00:00 14,9 4,3 18,3 7,9 7,9 13 7 22 12 NE 1031,0 20 60 0,0
23.02.2019 14:00:00 13,8 4,6 14,5 7,6 7,9 9 5 19 10 NE 1031,6 20 60 0,0
23.02.2019 13:00:00 12,4 4,8 13,8 7,2 7,9 9 5 19 10 N 1032,3 19 60 0,0
23.02.2019 12:00:00 11,5 4,2 14,1 6,8 7,9 6 4 14 8 ENE 1032,8 19 60 0,0
23.02.2019 11:00:00 8,8 4,6 12,2 6,6 7,9 5 3 11 6 NNW 1033,1 15 60 0,0
23.02.2019 10:00:00 6,9 4,6 9,5 6,5 7,9 7 4 13 7 NNE 1033,3 12 60 0,0
23.02.2019 09:00:00 4,8 3,6 1,8 6,6 7,8 4 2 8 5 N 1033,4 7 58 0,0
23.02.2019 08:00:00 2,3 0,8 0,2 6,7 7,9 2 1 13 7 NW 1033,7 3,3 0 0,0
23.02.2019 07:00:00 4,8 3,1 3,8 6,9 7,9 10 5 19 10 NE 1033,3 8 0 0,0
23.02.2019 06:00:00 5,1 3,3 3,6 7,1 7,9 8 4 14 8 NE 1033,5 9 0 0,0
23.02.2019 05:00:00 5,2 3,5 0,8 7,2 7,9 6 4 13 7 NE 1033,4 10 0 0,0
23.02.2019 04:00:00 5,4 2,6 2,8 7,4 7,9 4 2 13 7 NNW 1033,8 5 0 0,0
23.02.2019 03:00:00 6,2 3,5 3,1 7,6 7,8 0 0 16 8 N 1033,9 10 0 0,0
23.02.2019 02:00:00 7,7 4,8 6,3 7,7 7,8 9 5 19 11 NE 1034,1 12 0 0,0
23.02.2019 01:00:00 8,2 6,0 4,0 7,9 7,8 10 6 16 9 ENE 1034,2 11 0 0,0
23.02.2019 00:00:00 8,0 6,0 3,2 8,1 7,9 4 2 9 5 N 1034,4 4,9 0 0,0
22.02.2019 23:00:00 9,0 6,4 3,9 8,2 7,8 4 2 9 5 N 1034,3 7 0 0,0
22.02.2019 22:00:00 10,1 6,6 8,2 8,4 7,8 6 3 14 8 NE 1034,2 8 0 0,0
22.02.2019 21:00:00 11,3 7,2 9,8 8,5 7,8 8 5 14 8 NNE 1033,9 9 0 0,0
22.02.2019 20:00:00 12,1 7,0 10,5 8,6 7,8 7 4 14 8 NNE 1033,9 11 0 0,0
22.02.2019 19:00:00 13,1 6,2 11,8 8,6 7,8 10 5 19 10 N 1033,8 15 0 0,0
22.02.2019 18:00:00 15,2 5,1 14,0 8,5 7,8 10 5 17 9 NNE 1033,3 20 51 0,0
22.02.2019 17:00:00 16,9 4,2 18,8 8,3 7,8 10 5 20 11 NNE 1033,2 20 60 0,0
22.02.2019 16:00:00 17,2 6,1 20,5 7,9 7,8 11 6 21 11 NNW 1033,4 19 60 0,0
22.02.2019 15:00:00 17,0 5,9 20,0 7,4 7,8 5 3 19 11 NNW 1033,6 17 60 0,0
22.02.2019 14:00:00 15,9 3,7 16,8 6,9 7,8 9 5 18 10 NE 1034,0 14 60 0,0
22.02.2019 13:00:00 14,6 6,9 16,3 6,5 7,8 5 3 13 7 NNE 1034,7 13 60 0,0
22.02.2019 12:00:00 12,0 6,3 14,0 6,0 7,8 4 2 9 5 N 1035,6 16 60 0,0
22.02.2019 11:00:00 9,1 5,5 10,9 5,7 7,8 2 1 5 3 WNW 1035,8 15 60 0,0
22.02.2019 10:00:00 7,0 5,8 5,0 5,6 7,8 2 1 6 3 E 1035,8 14 60 0,0
22.02.2019 09:00:00 3,3 2,7 -0,5 5,7 7,8 5 3 8 5 S 1035,7 9 56 0,0
22.02.2019 08:00:00 0,8 0,1 -1,9 5,9 7,8 3 2 4 2 SW 1035,5 2,8 0 0,0
22.02.2019 07:00:00 0,4 -0,3 -1,7 6,0 7,8 0 0 7 4 N 1035,0 4,0 0 0,0
22.02.2019 06:00:00 0,4 -0,3 -1,9 6,2 7,8 4 2 5 3 ESE 1034,5 3,6 0 0,0
22.02.2019 05:00:00 1,7 0,8 -1,3 6,4 7,8 2 1 6 3 ESE 1034,0 4,2 0 0,0
22.02.2019 04:00:00 1,8 0,9 -1,1 6,6 7,8 4 2 5 3 E 1033,7 7 0 0,0
22.02.2019 03:00:00 2,2 1,2 -0,8 6,8 7,8 2 1 5 3 NE 1033,6 3,5 0 0,0
22.02.2019 02:00:00 3,2 2,2 -0,5 7,0 7,8 4 2 5 3 SW 1033,6 5 0 0,0
22.02.2019 01:00:00 3,6 2,4 0,4 7,2 7,8 4 2 5 3 SE 1033,5 8 0 0,0
22.02.2019 00:00:00 4,1 2,6 1,0 7,5 7,8 3 1 9 5 SE 1033,1 7 0 0,0
21.02.2019 23:00:00 5,1 3,4 1,4 7,6 7,8 4 2 4 2 S 1032,7 8 0 0,0
21.02.2019 22:00:00 6,2 4,0 1,7 7,9 7,8 0 0 2 1 N 1032,1 10 0 0,0
21.02.2019 21:00:00 7,7 4,3 3,4 8,0 7,8 0 0 6 3 N 1031,4 12 0 0,0
21.02.2019 20:00:00 10,0 4,6 5,1 8,2 7,8 5 3 8 4 SW 1030,7 18 0 0,0
21.02.2019 19:00:00 12,3 5,5 6,3 8,3 7,8 0 0 7 4 N 1030,2 20 0 0,0
21.02.2019 18:00:00 14,5 5,6 11,2 8,2 7,7 4 2 9 5 NNE 1029,4 20 43 0,0
21.02.2019 17:00:00 16,1 6,2 19,2 7,9 7,8 5 3 10 5 N 1029,0 20 60 0,0
21.02.2019 16:00:00 16,6 7,2 19,7 7,6 7,8 5 3 12 6 N 1029,0 20 60 0,0
21.02.2019 15:00:00 16,0 6,7 18,9 7,1 7,8 5 3 12 7 NNE 1028,7 19 43 0,0
21.02.2019 14:00:00 17,0 7,1 17,3 6,5 7,7 4 2 9 5 SSW 1028,8 19 60 0,0
21.02.2019 13:00:00 15,3 7,3 15,9 6,1 7,7 0 0 10 5 N 1029,1 20 60 0,0
21.02.2019 12:00:00 12,5 6,3 13,7 5,7 7,7 4 2 12 7 SE 1029,5 18 60 0,0
21.02.2019 11:00:00 9,6 5,2 9,6 5,4 7,7 4 2 13 7 SE 1029,7 17 60 0,0
21.02.2019 10:00:00 6,0 5,3 5,7 5,4 7,7 2 1 13 7 SSE 1029,7 14 60 0,0
21.02.2019 09:00:00 3,2 2,6 -1,2 5,5 7,7 13 7 18 10 SE 1029,4 13 54 0,0
21.02.2019 08:00:00 -0,2 -0,9 -2,1 5,6 7,7 4 2 9 5 ESE 1029,0 4,8 0 0,0
21.02.2019 07:00:00 1,3 0,7 -1,9 5,8 7,7 8 4 10 5 SSE 1028,3 10 0 0,0
21.02.2019 06:00:00 0,8 0,1 -1,3 6,0 7,7 5 3 9 5 ESE 1028,2 6 0 0,0
21.02.2019 05:00:00 0,8 -0,1 -1,6 6,2 7,7 5 3 6 4 E 1028,1 5 0 0,0
21.02.2019 04:00:00 1,7 0,8 -1,2 6,4 7,7 0 0 10 5 N 1027,9 4,5 0 0,0
21.02.2019 03:00:00 1,6 0,6 -0,6 6,6 7,7 2 1 9 5 ESE 1028,0 5 0 0,0
21.02.2019 02:00:00 2,3 1,1 -0,7 6,8 7,7 3 1 9 5 SSE 1027,5 7 0 0,0
21.02.2019 01:00:00 3,1 1,8 1,3 7,0 7,7 4 2 10 5 WSW 1027,3 8 0 0,0
21.02.2019 00:00:00 4,3 3,0 0,5 7,2 7,7 4 2 7 4 SE 1026,8 10 0 0,0
20.02.2019 23:00:00 4,1 2,1 1,7 7,4 7,7 2 1 7 4 S 1026,6 9 0 0,0
20.02.2019 22:00:00 5,8 3,3 1,9 7,6 7,7 6 3 6 4 SE 1026,2 12 0 0,0
20.02.2019 21:00:00 7,6 4,5 3,1 7,8 7,7 3 2 6 3 SE 1025,7 14 0 0,0
20.02.2019 20:00:00 8,7 4,7 3,6 8,0 7,7 0 0 5 3 N 1025,4 18 0 0,0
20.02.2019 19:00:00 11,7 5,1 5,9 8,1 7,7 5 3 7 4 SSW 1024,8 20 0 0,0
20.02.2019 18:00:00 12,8 5,0 9,6 8,0 7,7 5 3 11 6 S 1024,4 20 36 0,0
20.02.2019 17:00:00 14,8 5,0 16,7 7,8 7,7 5 3 10 5 S 1024,0 20 60 0,0
20.02.2019 16:00:00 15,0 5,2 18,3 7,4 7,7 4 2 10 6 SSE 1024,1 20 60 0,0
20.02.2019 15:00:00 14,5 5,8 17,8 7,0 7,7 4 2 12 7 SE 1024,3 19 60 0,0
20.02.2019 14:00:00 13,7 5,8 14,3 6,6 7,7 5 3 9 5 SE 1024,7 18 60 0,0
20.02.2019 13:00:00 12,2 6,5 13,4 6,2 7,7 4 2 13 7 ENE 1025,0 19 60 0,0
20.02.2019 12:00:00 10,4 8,2 10,2 5,8 7,7 4 2 9 5 ESE 1025,3 18 55 0,0
20.02.2019 11:00:00 6,2 5,8 6,8 5,5 7,6 7 4 10 5 SE 1025,3 16 60 0,0
20.02.2019 10:00:00 3,1 2,7 1,6 5,5 7,7 0 0 5 3 N 1025,3 0,6 38 0,0
20.02.2019 09:00:00 0,8 0,4 0,3 5,6 7,7 0 0 5 3 N 1025,0 0,1 2 0,0
20.02.2019 08:00:00 1,4 1,0 0,8 5,7 7,7 5 3 6 3 ESE 1024,1 0,4 0 0,0
20.02.2019 07:00:00 1,4 0,8 0,1 5,8 7,7 3 2 6 3 E 1023,8 0,1 0 0,0
20.02.2019 06:00:00 1,5 0,9 -0,3 5,9 7,7 2 1 8 4 SSE 1023,6 0,1 0 0,0
20.02.2019 05:00:00 1,4 0,8 -0,5 6,1 7,7 4 2 5 3 ESE 1023,4 0,6 0 0,0
20.02.2019 04:00:00 1,4 0,7 0,1 6,2 7,7 4 2 7 4 SSE 1023,4 1,7 0 0,0
20.02.2019 03:00:00 2,6 1,9 0,3 6,4 7,7 3 2 4 2 ENE 1023,7 0,3 0 0,0
20.02.2019 02:00:00 3,7 2,8 0,5 6,6 7,7 3 2 5 3 ESE 1023,7 1,4 0 0,0
20.02.2019 01:00:00 3,3 2,3 0,7 6,8 7,6 0 0 4 2 N 1023,7 1,6 0 0,0
20.02.2019 00:00:00 5,0 4,0 1,4 7,0 7,7 2 1 9 5 SSE 1023,3 3,6 0 0,0
19.02.2019 23:00:00 5,1 4,1 1,2 7,1 7,7 8 4 10 5 SSE 1023,2 7 0 0,0
19.02.2019 22:00:00 5,1 3,8 3,1 7,3 7,7 5 3 9 5 ESE 1023,3 5 0 0,0
19.02.2019 21:00:00 6,5 5,0 2,1 7,4 7,7 4 2 6 3 E 1023,2 8 0 0,0
19.02.2019 20:00:00 6,2 4,2 2,3 7,6 7,6 0 0 4 2 N 1023,3 6 0 0,0
19.02.2019 19:00:00 7,9 5,2 3,8 7,6 7,7 2 1 4 2 SE 1022,8 11 0 0,0
19.02.2019 18:00:00 9,5 6,0 8,6 7,6 7,6 3 2 5 3 S 1022,3 15 0 0,0
19.02.2019 17:00:00 10,1 6,2 10,6 7,5 7,7 4 2 10 6 S 1022,5 15 0 0,0
19.02.2019 16:00:00 10,4 6,0 11,1 7,2 7,6 8 4 14 8 SSE 1022,8 16 14 0,0
19.02.2019 15:00:00 10,2 6,3 11,3 6,9 7,6 8 5 11 6 SE 1022,8 14 0 0,0
19.02.2019 14:00:00 10,6 5,8 12,4 6,6 7,6 4 2 8 5 S 1023,2 18 13 0,0
19.02.2019 13:00:00 9,7 5,1 9,8 6,3 7,6 4 2 10 6 SE 1023,6 20 31 0,0
19.02.2019 12:00:00 8,0 5,6 8,4 6,1 7,6 4 2 6 3 E 1024,1 14 0 0,0
19.02.2019 11:00:00 7,3 5,4 7,6 6,0 7,6 3 2 8 4 ESE 1023,8 13 0 0,0
19.02.2019 10:00:00 6,8 5,1 6,2 6,0 7,6 3 2 6 3 S 1023,5 14 0 0,0
19.02.2019 09:00:00 6,2 4,2 5,5 5,9 7,6 0 0 6 3 N 1023,3 12 0 0,0
19.02.2019 08:00:00 6,2 3,7 5,3 5,9 7,6 3 2 5 3 SW 1022,3 17 0 0,0
19.02.2019 07:00:00 6,4 3,5 5,3 6,0 7,6 5 3 9 5 WSW 1021,8 20 0 0,0
19.02.2019 06:00:00 5,7 3,0 4,1 6,0 7,6 4 2 7 4 S 1021,5 20 0 0,0
19.02.2019 05:00:00 5,2 1,9 3,3 6,1 7,6 4 2 10 5 SW 1021,1 20 0 0,0
19.02.2019 04:00:00 6,3 2,2 2,8 6,2 7,6 5 3 10 5 SSW 1020,4 20 0 0,0
19.02.2019 03:00:00 6,1 1,6 3,9 6,4 7,6 8 5 12 6 S 1020,5 20 0 0,0
19.02.2019 02:00:00 6,6 1,9 4,3 6,5 7,6 9 5 13 7 S 1020,4 20 0 0,0
19.02.2019 01:00:00 7,2 2,5 2,5 6,6 7,6 8 4 10 5 S 1019,9 20 0 0,0
19.02.2019 00:00:00 5,6 1,5 2,6 6,8 7,6 8 4 13 7 ESE 1019,6 18 0 0,0
18.02.2019 23:00:00 8,1 2,1 4,5 6,9 7,6 8 4 13 7 S 1019,3 20 0 0,0
18.02.2019 22:00:00 8,2 2,0 5,0 7,0 7,6 8 4 18 10 S 1019,1 20 0 0,0
18.02.2019 21:00:00 9,1 2,2 6,7 7,1 7,6 9 5 16 9 S 1018,7 20 0 0,0
18.02.2019 20:00:00 9,9 2,3 7,6 7,2 7,6 8 4 16 9 S 1018,4 20 0 0,0
18.02.2019 19:00:00 11,8 2,8 10,2 7,2 7,6 12 6 20 11 SSE 1018,0 20 0 0,0
18.02.2019 18:00:00 12,8 2,6 11,8 7,1 7,6 14 7 23 12 SSE 1017,6 20 31 0,0
18.02.2019 17:00:00 15,3 1,4 17,5 6,9 7,6 14 8 27 15 S 1017,5 20 60 0,0
18.02.2019 16:00:00 15,7 0,7 16,2 6,6 7,6 16 9 28 15 S 1017,7 20 52 0,0
18.02.2019 15:00:00 15,6 0,9 16,2 6,1 7,6 17 9 27 15 S 1017,7 20 50 0,0
18.02.2019 14:00:00 14,4 0,6 15,3 5,8 7,6 16 9 25 14 SSW 1018,6 20 43 0,0
18.02.2019 13:00:00 14,6 1,5 15,6 5,4 7,6 11 6 23 12 S 1019,5 20 60 0,0
18.02.2019 12:00:00 12,7 0,7 14,9 5,0 7,6 14 7 24 13 SSE 1020,1 20 60 0,0
18.02.2019 11:00:00 11,2 0,9 11,4 4,7 7,6 16 9 24 13 SSE 1020,3 20 60 0,0
18.02.2019 10:00:00 8,3 0,3 8,2 4,6 7,6 10 5 14 7 SE 1020,6 20 60 0,0
18.02.2019 09:00:00 5,8 -0,5 2,0 4,7 7,6 11 6 15 8 SE 1020,9 20 48 0,0
18.02.2019 08:00:00 3,1 -1,3 -0,4 4,8 7,6 11 6 13 7 SE 1020,8 20 0 0,0
18.02.2019 07:00:00 4,1 -1,7 1,9 4,9 7,6 11 6 15 8 SE 1020,7 20 0 0,0
18.02.2019 06:00:00 4,6 -1,6 0,2 5,1 7,6 10 6 13 7 SE 1020,7 20 0 0,0
18.02.2019 05:00:00 4,4 -1,4 -0,7 5,2 7,6 8 4 14 8 SSE 1020,6 20 0 0,0
18.02.2019 04:00:00 2,8 -1,0 -1,3 5,5 7,6 10 6 14 8 SE 1020,7 20 0 0,0
18.02.2019 03:00:00 4,2 -0,8 -1,3 5,6 7,6 8 5 16 9 SSE 1021,1 20 0 0,0
18.02.2019 02:00:00 2,4 -1,8 -1,6 5,8 7,6 5 3 7 4 SE 1021,4 20 0 0,0
18.02.2019 01:00:00 2,8 -1,8 -1,5 6,1 7,6 2 1 6 3 SE 1021,5 20 0 0,0
18.02.2019 00:00:00 2,3 -1,5 -1,4 6,3 7,6 3 1 10 6 S 1021,5 20 0 0,0
17.02.2019 23:00:00 4,2 -1,2 -0,1 6,5 7,6 3 1 7 4 SSW 1021,5 20 0 0,0

tt = Température de l'air
td = dewpoint
tt 5cm = Température de l'air 5cm
tt -20cm = Température de l'air -20cm
tt -100cm = Température de l'air -100cm
ff = Vitesse du vent
fx = gusts
dd = Direction du vent
ppp = reduced air pressure
vv = visibility
sd = Ensoleillement
rr = Quantités de précipitations

stations d'obs. à proximité